| time (UTC) | temp C | wind direction | speed KPH | gust KPH | rain 1hr cm | rain 24hr cm | rain mn cm | humidity % | barometer mb |
| 20260510162700 | 26 | 39 | 6.4 | 12.9 | 0.00 | 0.00 | 0.00 | 40 | 1015.4 |
| 20260510162157 | 26 | 20 | 6.4 | 11.3 | 0.00 | 0.00 | 0.00 | 39 | 1015.6 |
| 20260510161653 | 26 | 46 | 3.2 | 12.9 | 0.00 | 0.00 | 0.00 | 36 | 1015.9 |
| 20260510161150 | 27 | 70 | 3.2 | 12.9 | 0.00 | 0.00 | 0.00 | 39 | 1015.5 |
| 20260510160647 | 27 | 45 | 3.2 | 8.0 | 0.00 | 0.00 | 0.00 | 46 | 1015.6 |
| 20260510160142 | 27 | 28 | 9.7 | 12.9 | 0.00 | 0.00 | 0.00 | 41 | 1015.9 |
| 20260510155638 | 26 | 74 | 3.2 | 9.7 | 0.00 | 0.00 | 0.00 | 43 | 1015.8 |
| 20260510155134 | 26 | 45 | 0.0 | 4.8 | 0.00 | 0.00 | 0.00 | 47 | 1015.8 |
| 20260510154630 | 26 | 18 | 8.0 | 9.7 | 0.00 | 0.00 | 0.00 | 44 | 1015.5 |
| 20260510154125 | 26 | 23 | 8.0 | 8.0 | 0.00 | 0.00 | 0.00 | 42 | 1015.9 |
| 20260510153621 | 26 | 63 | 4.8 | 8.0 | 0.00 | 0.00 | 0.00 | 40 | 1015.9 |
| 20260510153118 | 27 | 39 | 0.0 | 6.4 | 0.00 | 0.00 | 0.00 | 50 | 1015.9 |
| 20260510152614 | 26 | 40 | 3.2 | 6.4 | 0.00 | 0.00 | 0.00 | 45 | 1016.0 |
| 20260510152111 | 26 | 45 | 3.2 | 4.8 | 0.00 | 0.00 | 0.00 | 46 | 1015.9 |
| 20260510151607 | 25 | 16 | 6.4 | 8.0 | 0.00 | 0.00 | 0.00 | 47 | 1016.0 |
| 20260510151105 | 26 | 8 | 4.8 | 16.1 | 0.00 | 0.00 | 0.00 | 42 | 1016.3 |
| 20260510150600 | 26 | 30 | 3.2 | 8.0 | 0.00 | 0.00 | 0.00 | 42 | 1015.8 |
| 20260510150055 | 26 | 35 | 4.8 | 8.0 | 0.00 | 0.00 | 0.00 | 45 | 1016.0 |
| 20260510145553 | 25 | 9 | 0.0 | 4.8 | 0.00 | 0.00 | 0.00 | 51 | 1015.7 |
| 20260510145049 | 25 | 21 | 4.8 | 8.0 | 0.00 | 0.00 | 0.00 | 48 | 1015.7 |
| 20260510144546 | 25 | 335 | 1.6 | 9.7 | 0.00 | 0.00 | 0.00 | 54 | 1015.8 |
| 20260510144042 | 25 | 65 | 6.4 | 8.0 | 0.00 | 0.00 | 0.00 | 47 | 1015.7 |
| 20260510143537 | 25 | 28 | 3.2 | 4.8 | 0.00 | 0.00 | 0.00 | 50 | 1015.7 |
| 20260510143034 | 24 | 11 | 6.4 | 8.0 | 0.00 | 0.00 | 0.00 | 51 | 1015.7 |
| 20260510142530 | 23 | 19 | 4.8 | 11.3 | 0.00 | 0.00 | 0.00 | 56 | 1016.0 |
| 20260510142027 | 23 | 14 | 6.4 | 17.7 | 0.00 | 0.00 | 0.00 | 53 | 1015.7 |
| 20260510141524 | 23 | 6 | 4.8 | 8.0 | 0.00 | 0.00 | 0.00 | 54 | 1015.8 |
| 20260510141022 | 23 | 18 | 8.0 | 16.1 | 0.00 | 0.00 | 0.00 | 56 | 1015.7 |
| 20260510140517 | 23 | 64 | 3.2 | 14.5 | 0.00 | 0.00 | 0.00 | 57 | 1015.9 |
| 20260510140012 | 23 | 312 | 4.8 | 9.7 | 0.00 | 0.00 | 0.00 | 58 | 1016.0 |
| 20260510135507 | 23 | 6 | 9.7 | 9.7 | 0.00 | 0.00 | 0.00 | 62 | 1015.6 |
| 20260510135004 | 23 | 20 | 3.2 | 8.0 | 0.00 | 0.00 | 0.00 | 62 | 1015.9 |
| 20260510134501 | 22 | 54 | 4.8 | 6.4 | 0.00 | 0.00 | 0.00 | 71 | 1015.8 |
| 20260510133958 | 22 | 59 | 8.0 | 9.7 | 0.00 | 0.00 | 0.00 | 69 | 1015.9 |
| 20260510133454 | 22 | 25 | 6.4 | 8.0 | 0.00 | 0.00 | 0.00 | 70 | 1015.9 |
| 20260510132949 | 21 | 12 | 0.0 | 6.4 | 0.00 | 0.00 | 0.00 | 77 | 1015.8 |
| 20260510132447 | 21 | 22 | 8.0 | 9.7 | 0.00 | 0.00 | 0.00 | 76 | 1015.7 |
| 20260510131944 | 21 | 291 | 1.6 | 8.0 | 0.00 | 0.00 | 0.00 | 78 | 1015.8 |
| 20260510131442 | 21 | 38 | 8.0 | 8.0 | 0.00 | 0.00 | 0.00 | 80 | 1015.8 |
| 20260510130938 | 20 | 19 | 11.3 | 12.9 | 0.00 | 0.00 | 0.00 | 78 | 1015.8 |
| 20260510130435 | 20 | 15 | 8.0 | 8.0 | 0.00 | 0.00 | 0.00 | 82 | 1015.8 |
| 20260510125932 | 20 | 55 | 6.4 | 9.7 | 0.00 | 0.00 | 0.00 | 83 | 1015.6 |
| 20260510125428 | 20 | 38 | 1.6 | 4.8 | 0.00 | 0.00 | 0.00 | 85 | 1015.5 |
| 20260510124925 | 20 | 35 | 3.2 | 4.8 | 0.00 | 0.00 | 0.00 | 87 | 1015.4 |
| 20260510124421 | 18 | 162 | 3.2 | 4.8 | 0.00 | 0.00 | 0.00 | 89 | 1015.6 |
| 20260510123918 | 18 | 89 | 0.0 | 1.6 | 0.00 | 0.00 | 0.00 | 94 | 1015.2 |
| 20260510123414 | 18 | 113 | 0.0 | 3.2 | 0.00 | 0.00 | 0.00 | 95 | 1015.4 |
| 20260510122910 | 17 | 89 | 0.0 | 1.6 | 0.00 | 0.00 | 0.00 | 98 | 1015.3 |
| 20260510122405 | 17 | 105 | 1.6 | 3.2 | 0.00 | 0.00 | 0.00 | 99 | 1015.1 |
| 20260510121902 | 16 | 37 | 0.0 | 1.6 | 0.00 | 0.00 | 0.00 | 99 | 1015.3 |
| 20260510121359 | 16 | 68 | 1.6 | 3.2 | 0.00 | 0.00 | 0.00 | 99 | 1015.1 |
| 20260510120856 | 16 | 38 | 0.0 | 3.2 | 0.00 | 0.00 | 0.00 | 99 | 1015.1 |
| 20260510120354 | 15 | 56 | 1.6 | 1.6 | 0.00 | 0.00 | 0.00 | 99 | 1015.0 |
| 20260510115849 | 15 | 53 | 1.6 | 3.2 | 0.00 | 0.00 | 0.00 | 99 | 1014.9 |
| 20260510115346 | 15 | 82 | 1.6 | 3.2 | 0.00 | 0.00 | 0.00 | 99 | 1014.8 |
| 20260510114842 | 14 | 78 | 1.6 | 3.2 | 0.00 | 0.00 | 0.00 | 99 | 1014.9 |
| 20260510114340 | 14 | 79 | 3.2 | 3.2 | 0.00 | 0.00 | 0.00 | 99 | 1014.9 |
| 20260510113839 | 13 | 75 | 3.2 | 4.8 | 0.00 | 0.00 | 0.00 | 99 | 1014.9 |
| 20260510113336 | 13 | 81 | 1.6 | 4.8 | 0.00 | 0.00 | 0.00 | 99 | 1014.8 |
| 20260510112833 | 13 | 82 | 3.2 | 3.2 | 0.00 | 0.00 | 0.00 | 99 | 1014.5 |
| 20260510112330 | 13 | 67 | 3.2 | 3.2 | 0.00 | 0.00 | 0.00 | 99 | 1014.5 |
| 20260510111826 | 13 | 66 | 3.2 | 3.2 | 0.00 | 0.00 | 0.00 | 99 | 1014.3 |
| 20260510111323 | 13 | 69 | 3.2 | 3.2 | 0.00 | 0.00 | 0.00 | 99 | 1014.2 |
| 20260510110822 | 13 | 58 | 3.2 | 4.8 | 0.00 | 0.00 | 0.00 | 99 | 1014.1 |
| 20260510110320 | 13 | 72 | 3.2 | 3.2 | 0.00 | 0.00 | 0.00 | 99 | 1013.9 |
| 20260510105816 | 13 | 76 | 3.2 | 3.2 | 0.00 | 0.00 | 0.00 | 99 | 1013.8 |
| 20260510105310 | 13 | 80 | 3.2 | 3.2 | 0.00 | 0.00 | 0.00 | 99 | 1013.8 |
| 20260510104807 | 12 | 84 | 3.2 | 3.2 | 0.00 | 0.00 | 0.00 | 99 | 1013.6 |
| 20260510104305 | 12 | 73 | 1.6 | 3.2 | 0.00 | 0.00 | 0.00 | 99 | 1013.8 |
| 20260510103801 | 13 | 71 | 3.2 | 4.8 | 0.00 | 0.00 | 0.00 | 99 | 1013.6 |
| 20260510103257 | 13 | 49 | 4.8 | 4.8 | 0.00 | 0.00 | 0.00 | 99 | 1013.7 |
| 20260510102752 | 13 | 77 | 1.6 | 3.2 | 0.00 | 0.00 | 0.00 | 99 | 1013.4 |
| 20260510102248 | 13 | 76 | 3.2 | 3.2 | 0.00 | 0.00 | 0.00 | 99 | 1013.4 |
| 20260510101746 | 13 | 75 | 1.6 | 3.2 | 0.00 | 0.00 | 0.00 | 99 | 1013.5 |
| 20260510101244 | 13 | 47 | 1.6 | 3.2 | 0.00 | 0.00 | 0.00 | 99 | 1013.6 |
| 20260510100739 | 13 | 94 | 1.6 | 3.2 | 0.00 | 0.00 | 0.00 | 99 | 1013.3 |
| 20260510100238 | 13 | 89 | 1.6 | 3.2 | 0.00 | 0.00 | 0.00 | 99 | 1013.2 |
| 20260510095733 | 13 | 85 | 3.2 | 4.8 | 0.00 | 0.00 | 0.00 | 99 | 1013.4 |
| 20260510095228 | 13 | 88 | 1.6 | 3.2 | 0.00 | 0.00 | 0.00 | 99 | 1013.0 |
| 20260510094727 | 13 | 91 | 3.2 | 3.2 | 0.00 | 0.00 | 0.00 | 99 | 1013.1 |
| 20260510094223 | 13 | 76 | 3.2 | 3.2 | 0.00 | 0.00 | 0.00 | 99 | 1012.7 |
| 20260510093719 | 13 | 83 | 3.2 | 3.2 | 0.00 | 0.00 | 0.00 | 99 | 1012.9 |
| 20260510093217 | 13 | 79 | 3.2 | 3.2 | 0.00 | 0.00 | 0.00 | 99 | 1012.9 |
| 20260510092713 | 13 | 76 | 3.2 | 3.2 | 0.00 | 0.00 | 0.00 | 99 | 1012.6 |
| 20260510092208 | 13 | 59 | 1.6 | 3.2 | 0.00 | 0.00 | 0.00 | 99 | 1012.7 |
| 20260510091704 | 13 | 78 | 3.2 | 3.2 | 0.00 | 0.00 | 0.00 | 99 | 1012.5 |
| 20260510091201 | 13 | 61 | 3.2 | 4.8 | 0.00 | 0.00 | 0.00 | 99 | 1012.5 |
| 20260510090657 | 13 | 63 | 4.8 | 4.8 | 0.00 | 0.00 | 0.00 | 99 | 1012.6 |
| 20260510090154 | 13 | 58 | 3.2 | 3.2 | 0.00 | 0.00 | 0.00 | 99 | 1012.6 |
| 20260510085649 | 13 | 70 | 3.2 | 4.8 | 0.00 | 0.00 | 0.00 | 99 | 1012.3 |
| 20260510085144 | 13 | 73 | 3.2 | 4.8 | 0.00 | 0.00 | 0.00 | 99 | 1012.4 |
| 20260510084641 | 13 | 81 | 1.6 | 3.2 | 0.00 | 0.00 | 0.00 | 99 | 1012.4 |
| 20260510084138 | 13 | 74 | 3.2 | 3.2 | 0.00 | 0.00 | 0.00 | 99 | 1012.3 |
| 20260510083634 | 13 | 68 | 3.2 | 3.2 | 0.00 | 0.00 | 0.00 | 99 | 1012.4 |
| 20260510083131 | 13 | 88 | 1.6 | 3.2 | 0.00 | 0.00 | 0.00 | 99 | 1012.5 |
| 20260510082627 | 13 | 70 | 3.2 | 3.2 | 0.00 | 0.00 | 0.00 | 99 | 1012.5 |
| 20260510082124 | 13 | 69 | 1.6 | 3.2 | 0.00 | 0.00 | 0.00 | 99 | 1012.4 |
| 20260510081623 | 13 | 85 | 3.2 | 3.2 | 0.00 | 0.00 | 0.00 | 99 | 1012.3 |
| 20260510081120 | 13 | 74 | 3.2 | 3.2 | 0.00 | 0.00 | 0.00 | 99 | 1012.1 |
| 20260510080619 | 13 | 73 | 3.2 | 4.8 | 0.00 | 0.00 | 0.00 | 99 | 1012.0 |
| 20260510080116 | 13 | 75 | 3.2 | 3.2 | 0.00 | 0.00 | 0.00 | 99 | 1012.2 |
| 20260510075613 | 13 | 81 | 3.2 | 3.2 | 0.00 | 0.00 | 0.00 | 99 | 1012.1 |
| 20260510075110 | 13 | 79 | 3.2 | 3.2 | 0.00 | 0.00 | 0.00 | 99 | 1012.1 |
| 20260510074608 | 13 | 77 | 3.2 | 4.8 | 0.00 | 0.00 | 0.00 | 99 | 1012.1 |
| 20260510074103 | 13 | 50 | 3.2 | 3.2 | 0.00 | 0.00 | 0.00 | 99 | 1012.1 |
| 20260510073559 | 13 | 62 | 3.2 | 3.2 | 0.00 | 0.00 | 0.00 | 99 | 1012.2 |
| 20260510073056 | 13 | 76 | 1.6 | 3.2 | 0.00 | 0.00 | 0.00 | 99 | 1012.1 |
| 20260510072553 | 13 | 73 | 3.2 | 3.2 | 0.00 | 0.00 | 0.00 | 99 | 1012.3 |
| 20260510072049 | 13 | 80 | 3.2 | 3.2 | 0.00 | 0.00 | 0.00 | 99 | 1012.1 |
| 20260510071545 | 13 | 88 | 3.2 | 3.2 | 0.00 | 0.00 | 0.00 | 99 | 1012.2 |
| 20260510071043 | 13 | 81 | 3.2 | 4.8 | 0.00 | 0.00 | 0.00 | 99 | 1011.9 |
| 20260510070540 | 13 | 82 | 3.2 | 3.2 | 0.00 | 0.00 | 0.00 | 99 | 1012.0 |
| 20260510070037 | 13 | 66 | 3.2 | 3.2 | 0.00 | 0.00 | 0.00 | 99 | 1011.9 |
| 20260510065533 | 13 | 66 | 3.2 | 3.2 | 0.00 | 0.00 | 0.00 | 99 | 1011.8 |
| 20260510065029 | 13 | 70 | 3.2 | 4.8 | 0.00 | 0.00 | 0.00 | 99 | 1011.9 |
| 20260510064526 | 13 | 77 | 3.2 | 3.2 | 0.00 | 0.00 | 0.00 | 99 | 1011.7 |
| 20260510064022 | 13 | 69 | 3.2 | 3.2 | 0.00 | 0.00 | 0.00 | 99 | 1012.1 |
| 20260510063519 | 13 | 69 | 3.2 | 3.2 | 0.00 | 0.00 | 0.00 | 99 | 1012.2 |
| 20260510063017 | 14 | 62 | 3.2 | 4.8 | 0.00 | 0.00 | 0.00 | 99 | 1012.2 |
| 20260510062512 | 14 | 60 | 3.2 | 3.2 | 0.00 | 0.00 | 0.00 | 99 | 1012.2 |
| 20260510062008 | 14 | 63 | 3.2 | 3.2 | 0.00 | 0.00 | 0.00 | 99 | 1012.1 |
| 20260510061504 | 14 | 77 | 3.2 | 3.2 | 0.00 | 0.00 | 0.00 | 99 | 1012.2 |
| 20260510061001 | 14 | 54 | 1.6 | 3.2 | 0.00 | 0.00 | 0.00 | 99 | 1011.8 |
| 20260510060458 | 14 | 56 | 3.2 | 3.2 | 0.00 | 0.00 | 0.00 | 99 | 1012.0 |
| 20260510055954 | 14 | 101 | 3.2 | 3.2 | 0.00 | 0.00 | 0.00 | 99 | 1011.9 |
| 20260510055450 | 14 | 73 | 3.2 | 3.2 | 0.00 | 0.00 | 0.00 | 99 | 1012.1 |
| 20260510054948 | 14 | 76 | 3.2 | 3.2 | 0.00 | 0.00 | 0.00 | 99 | 1012.3 |
| 20260510054443 | 14 | 69 | 3.2 | 3.2 | 0.00 | 0.00 | 0.00 | 99 | 1012.1 |
| 20260510053938 | 14 | 84 | 1.6 | 3.2 | 0.00 | 0.00 | 0.00 | 99 | 1012.0 |
| 20260510053434 | 14 | 76 | 1.6 | 3.2 | 0.00 | 0.00 | 0.00 | 99 | 1012.1 |
| 20260510052930 | 14 | 78 | 1.6 | 3.2 | 0.00 | 0.00 | 0.00 | 99 | 1012.1 |
| 20260510052426 | 14 | 75 | 3.2 | 3.2 | 0.00 | 0.00 | 0.00 | 99 | 1012.2 |
| 20260510051923 | 14 | 87 | 1.6 | 3.2 | 0.00 | 0.00 | 0.00 | 99 | 1012.4 |
| 20260510051419 | 14 | 71 | 3.2 | 4.8 | 0.00 | 0.00 | 0.00 | 99 | 1012.2 |
| 20260510050916 | 14 | 71 | 3.2 | 3.2 | 0.00 | 0.00 | 0.00 | 99 | 1012.3 |
| 20260510050412 | 14 | 65 | 3.2 | 3.2 | 0.00 | 0.00 | 0.00 | 99 | 1012.3 |
| 20260510045910 | 14 | 73 | 1.6 | 3.2 | 0.00 | 0.00 | 0.00 | 99 | 1012.4 |
| 20260510045407 | 14 | 57 | 3.2 | 3.2 | 0.00 | 0.00 | 0.00 | 99 | 1012.5 |
| 20260510044903 | 14 | 73 | 3.2 | 3.2 | 0.00 | 0.00 | 0.00 | 99 | 1012.4 |
| 20260510044400 | 14 | 81 | 3.2 | 4.8 | 0.00 | 0.00 | 0.00 | 99 | 1012.6 |
| 20260510043857 | 14 | 78 | 3.2 | 4.8 | 0.00 | 0.00 | 0.00 | 99 | 1012.2 |
| 20260510043353 | 14 | 71 | 3.2 | 3.2 | 0.00 | 0.00 | 0.00 | 99 | 1012.5 |
| 20260510042851 | 14 | 68 | 3.2 | 3.2 | 0.00 | 0.00 | 0.00 | 99 | 1012.6 |
| 20260510042346 | 14 | 55 | 1.6 | 3.2 | 0.00 | 0.00 | 0.00 | 99 | 1012.8 |
| 20260510041843 | 14 | 51 | 1.6 | 3.2 | 0.00 | 0.00 | 0.00 | 99 | 1012.6 |
| 20260510041340 | 14 | 73 | 3.2 | 3.2 | 0.00 | 0.00 | 0.00 | 99 | 1012.4 |
| 20260510040838 | 14 | 72 | 3.2 | 3.2 | 0.00 | 0.00 | 0.00 | 99 | 1012.4 |
| 20260510040334 | 14 | 68 | 3.2 | 3.2 | 0.00 | 0.00 | 0.00 | 99 | 1012.4 |
| 20260510035830 | 13 | 67 | 3.2 | 3.2 | 0.00 | 0.05 | 0.05 | 99 | 1012.3 |
| 20260510035326 | 14 | 72 | 3.2 | 3.2 | 0.00 | 0.05 | 0.05 | 99 | 1012.3 |
| 20260510034822 | 14 | 55 | 3.2 | 4.8 | 0.00 | 0.05 | 0.05 | 99 | 1012.6 |
| 20260510034320 | 14 | 70 | 3.2 | 3.2 | 0.00 | 0.05 | 0.05 | 99 | 1012.5 |
| 20260510033816 | 13 | 77 | 3.2 | 3.2 | 0.00 | 0.05 | 0.05 | 99 | 1012.4 |
| 20260510033313 | 13 | 75 | 1.6 | 3.2 | 0.00 | 0.05 | 0.05 | 99 | 1012.3 |
| 20260510032809 | 13 | 76 | 3.2 | 3.2 | 0.00 | 0.05 | 0.05 | 99 | 1012.3 |
| 20260510032306 | 13 | 67 | 3.2 | 3.2 | 0.00 | 0.05 | 0.05 | 99 | 1012.4 |
| 20260510031802 | 14 | 67 | 3.2 | 3.2 | 0.00 | 0.05 | 0.05 | 99 | 1012.4 |
| 20260510031257 | 14 | 75 | 3.2 | 4.8 | 0.00 | 0.05 | 0.05 | 99 | 1012.3 |
| 20260510030751 | 13 | 71 | 3.2 | 3.2 | 0.00 | 0.05 | 0.05 | 99 | 1012.3 |
| 20260510030248 | 14 | 73 | 3.2 | 3.2 | 0.00 | 0.05 | 0.05 | 99 | 1012.2 |
| 20260510025745 | 14 | 67 | 3.2 | 3.2 | 0.00 | 0.05 | 0.05 | 99 | 1012.2 |
| 20260510025243 | 14 | 50 | 1.6 | 4.8 | 0.00 | 0.05 | 0.05 | 99 | 1012.3 |
| 20260510024740 | 14 | 76 | 3.2 | 4.8 | 0.00 | 0.05 | 0.05 | 99 | 1012.2 |
| 20260510024236 | 14 | 85 | 3.2 | 4.8 | 0.00 | 0.05 | 0.05 | 99 | 1012.3 |
| 20260510023731 | 14 | 73 | 3.2 | 4.8 | 0.00 | 0.05 | 0.05 | 99 | 1012.2 |
| 20260510023224 | 14 | 65 | 3.2 | 3.2 | 0.00 | 0.05 | 0.05 | 99 | 1012.1 |
| 20260510022720 | 14 | 74 | 3.2 | 4.8 | 0.00 | 0.05 | 0.05 | 99 | 1012.1 |
| 20260510022220 | 14 | 74 | 3.2 | 4.8 | 0.00 | 0.05 | 0.05 | 99 | 1012.1 |
| 20260510021715 | 15 | 66 | 3.2 | 3.2 | 0.00 | 0.05 | 0.05 | 99 | 1012.0 |
| 20260510021213 | 15 | 62 | 3.2 | 3.2 | 0.00 | 0.05 | 0.05 | 99 | 1011.9 |
| 20260510020708 | 15 | 63 | 3.2 | 3.2 | 0.00 | 0.05 | 0.05 | 99 | 1012.2 |
| 20260510020203 | 15 | 65 | 3.2 | 4.8 | 0.00 | 0.05 | 0.05 | 99 | 1012.1 |
| 20260510015659 | 15 | 77 | 3.2 | 4.8 | 0.00 | 0.05 | 0.05 | 99 | 1011.8 |
| 20260510015155 | 15 | 81 | 3.2 | 4.8 | 0.00 | 0.05 | 0.05 | 99 | 1011.9 |
| 20260510014650 | 15 | 82 | 3.2 | 4.8 | 0.00 | 0.05 | 0.05 | 99 | 1011.8 |
| 20260510014148 | 15 | 85 | 3.2 | 4.8 | 0.00 | 0.05 | 0.05 | 99 | 1011.8 |
| 20260510013643 | 15 | 71 | 3.2 | 3.2 | 0.00 | 0.05 | 0.05 | 99 | 1011.7 |
| 20260510013139 | 15 | 78 | 4.8 | 4.8 | 0.00 | 0.05 | 0.05 | 99 | 1011.5 |
| 20260510012638 | 15 | 79 | 3.2 | 3.2 | 0.00 | 0.05 | 0.05 | 97 | 1011.4 |
| 20260510012135 | 15 | 66 | 3.2 | 3.2 | 0.00 | 0.05 | 0.05 | 97 | 1011.3 |
| 20260510011635 | 15 | 69 | 3.2 | 4.8 | 0.00 | 0.05 | 0.05 | 97 | 1011.0 |
| 20260510011131 | 15 | 81 | 3.2 | 4.8 | 0.00 | 0.05 | 0.05 | 97 | 1011.2 |
| 20260510010627 | 16 | 89 | 3.2 | 4.8 | 0.00 | 0.05 | 0.05 | 97 | 1011.2 |
| 20260510010124 | 16 | 85 | 3.2 | 3.2 | 0.00 | 0.05 | 0.05 | 95 | 1011.0 |
| 20260510005619 | 16 | 67 | 3.2 | 3.2 | 0.00 | 0.05 | 0.05 | 94 | 1011.2 |
| 20260510005117 | 16 | 77 | 3.2 | 3.2 | 0.00 | 0.05 | 0.05 | 94 | 1010.7 |
| 20260510004615 | 16 | 79 | 3.2 | 4.8 | 0.00 | 0.05 | 0.05 | 94 | 1010.9 |
| 20260510004113 | 16 | 78 | 3.2 | 3.2 | 0.00 | 0.05 | 0.05 | 92 | 1011.1 |
| 20260510003610 | 16 | 80 | 3.2 | 3.2 | 0.00 | 0.05 | 0.05 | 92 | 1011.1 |
| 20260510003106 | 17 | 64 | 3.2 | 3.2 | 0.00 | 0.05 | 0.05 | 90 | 1010.8 |
| 20260510002600 | 17 | 74 | 1.6 | 3.2 | 0.00 | 0.05 | 0.05 | 90 | 1010.9 |
| 20260510002057 | 17 | 59 | 3.2 | 3.2 | 0.00 | 0.05 | 0.05 | 88 | 1010.7 |
| 20260510001555 | 17 | 67 | 3.2 | 3.2 | 0.00 | 0.05 | 0.05 | 88 | 1010.8 |
| 20260510001054 | 17 | 70 | 3.2 | 3.2 | 0.00 | 0.05 | 0.05 | 87 | 1010.9 |
| 20260510000548 | 18 | 62 | 3.2 | 4.8 | 0.00 | 0.05 | 0.05 | 87 | 1010.9 |
| 20260510000046 | 18 | 65 | 3.2 | 3.2 | 0.00 | 0.05 | 0.05 | 86 | 1011.0 |
| 20260509235542 | 18 | 61 | 3.2 | 3.2 | 0.00 | 0.05 | 0.05 | 86 | 1010.6 |
| 20260509235038 | 18 | 77 | 3.2 | 3.2 | 0.00 | 0.05 | 0.05 | 84 | 1010.8 |
| 20260509234534 | 18 | 80 | 3.2 | 3.2 | 0.00 | 0.05 | 0.05 | 84 | 1010.7 |
| 20260509234033 | 19 | 75 | 3.2 | 3.2 | 0.00 | 0.05 | 0.05 | 84 | 1010.6 |
| 20260509233530 | 20 | 67 | 0.0 | 4.8 | 0.00 | 0.05 | 0.05 | 82 | 1010.5 |
| 20260509233027 | 20 | 79 | 3.2 | 3.2 | 0.00 | 0.05 | 0.05 | 81 | 1010.7 |
| 20260509232524 | 20 | 78 | 3.2 | 3.2 | 0.00 | 0.05 | 0.05 | 79 | 1010.5 |
| 20260509232020 | 20 | 79 | 3.2 | 3.2 | 0.00 | 0.05 | 0.05 | 79 | 1010.4 |
| 20260509231516 | 20 | 55 | 3.2 | 3.2 | 0.00 | 0.05 | 0.05 | 78 | 1010.1 |
| 20260509231015 | 21 | 114 | 1.6 | 3.2 | 0.00 | 0.05 | 0.05 | 77 | 1010.2 |
| 20260509230511 | 21 | 78 | 0.0 | 3.2 | 0.00 | 0.05 | 0.05 | 76 | 1010.1 |
| 20260509230008 | 21 | 51 | 1.6 | 3.2 | 0.00 | 0.05 | 0.05 | 76 | 1010.4 |
| 20260509225503 | 21 | 72 | 1.6 | 3.2 | 0.00 | 0.05 | 0.05 | 76 | 1010.0 |
| 20260509224959 | 22 | 62 | 0.0 | 3.2 | 0.00 | 0.05 | 0.05 | 74 | 1010.0 |
| 20260509224455 | 22 | 233 | 1.6 | 3.2 | 0.00 | 0.05 | 0.05 | 73 | 1010.0 |
| 20260509223952 | 23 | 62 | 0.0 | 3.2 | 0.00 | 0.05 | 0.05 | 70 | 1010.1 |
| 20260509223449 | 23 | 80 | 0.0 | 3.2 | 0.00 | 0.05 | 0.05 | 69 | 1010.0 |
| 20260509222946 | 23 | 169 | 0.0 | 3.2 | 0.00 | 0.05 | 0.05 | 70 | 1009.8 |
| 20260509222441 | 23 | 86 | 3.2 | 4.8 | 0.00 | 0.05 | 0.05 | 73 | 1009.9 |
| 20260509221937 | 23 | 62 | 3.2 | 3.2 | 0.00 | 0.05 | 0.05 | 72 | 1010.0 |
| 20260509221434 | 23 | 80 | 1.6 | 3.2 | 0.00 | 0.05 | 0.05 | 71 | 1010.2 |
| 20260509220930 | 23 | 34 | 0.0 | 3.2 | 0.00 | 0.05 | 0.05 | 72 | 1009.9 |
| 20260509220426 | 22 | 87 | 1.6 | 3.2 | 0.00 | 0.05 | 0.05 | 78 | 1010.2 |
| 20260509215922 | 22 | 25 | 0.0 | 3.2 | 0.00 | 0.05 | 0.05 | 73 | 1010.4 |
| 20260509215418 | 22 | 65 | 0.0 | 0.0 | 0.00 | 0.05 | 0.05 | 73 | 1010.1 |
| 20260509214916 | 22 | 53 | 0.0 | 3.2 | 0.00 | 0.05 | 0.05 | 73 | 1009.9 |
| 20260509214413 | 22 | 49 | 0.0 | 4.8 | 0.00 | 0.05 | 0.05 | 73 | 1010.0 |
| 20260509213910 | 22 | 62 | 0.0 | 3.2 | 0.00 | 0.05 | 0.05 | 74 | 1010.1 |
| 20260509213405 | 23 | 16 | 0.0 | 4.8 | 0.00 | 0.05 | 0.05 | 73 | 1010.0 |
| 20260509212903 | 23 | 37 | 0.0 | 1.6 | 0.00 | 0.05 | 0.05 | 70 | 1010.1 |
| 20260509212400 | 23 | 27 | 0.0 | 3.2 | 0.00 | 0.05 | 0.05 | 74 | 1010.3 |
| 20260509211856 | 22 | 89 | 0.0 | 1.6 | 0.00 | 0.05 | 0.05 | 73 | 1010.2 |
| 20260509211352 | 22 | 147 | 0.0 | 1.6 | 0.00 | 0.05 | 0.05 | 73 | 1010.2 |
| 20260509210849 | 22 | 139 | 1.6 | 4.8 | 0.00 | 0.05 | 0.05 | 73 | 1010.1 |
| 20260509210346 | 23 | 48 | 0.0 | 3.2 | 0.00 | 0.05 | 0.05 | 73 | 1010.2 |
| 20260509205846 | 23 | 117 | 0.0 | 1.6 | 0.00 | 0.05 | 0.05 | 69 | 1010.2 |
| 20260509205341 | 24 | 173 | 0.0 | 3.2 | 0.00 | 0.05 | 0.05 | 67 | 1009.9 |
| 20260509204838 | 24 | 258 | 0.0 | 1.6 | 0.00 | 0.05 | 0.05 | 67 | 1009.9 |
| 20260509204334 | 23 | 135 | 0.0 | 1.6 | 0.00 | 0.05 | 0.05 | 69 | 1010.1 |
| 20260509203830 | 23 | 112 | 0.0 | 3.2 | 0.00 | 0.05 | 0.05 | 68 | 1009.9 |
| 20260509203327 | 23 | 129 | 0.0 | 4.8 | 0.00 | 0.05 | 0.05 | 71 | 1009.7 |
| 20260509202823 | 22 | 92 | 1.6 | 4.8 | 0.00 | 0.05 | 0.05 | 73 | 1010.1 |
| 20260509202320 | 22 | 322 | 0.0 | 1.6 | 0.00 | 0.05 | 0.05 | 73 | 1010.1 |
| 20260509201819 | 22 | 326 | 3.2 | 3.2 | 0.00 | 0.05 | 0.05 | 72 | 1009.8 |
| 20260509201316 | 22 | 129 | 0.0 | 1.6 | 0.00 | 0.05 | 0.05 | 70 | 1010.1 |
| 20260509200812 | 22 | 76 | 0.0 | 1.6 | 0.00 | 0.05 | 0.05 | 73 | 1010.2 |
| 20260509200308 | 22 | 283 | 3.2 | 4.8 | 0.00 | 0.05 | 0.05 | 71 | 1010.3 |
| 20260509195804 | 22 | 269 | 0.0 | 4.8 | 0.00 | 0.05 | 0.05 | 71 | 1010.3 |
| 20260509195259 | 22 | 31 | 0.0 | 4.8 | 0.00 | 0.05 | 0.05 | 72 | 1010.1 |
| 20260509194759 | 21 | 299 | 0.0 | 4.8 | 0.00 | 0.05 | 0.05 | 79 | 1010.3 |
| 20260509194255 | 21 | 72 | 0.0 | 1.6 | 0.00 | 0.05 | 0.05 | 78 | 1010.5 |
| 20260509193753 | 21 | 324 | 0.0 | 3.2 | 0.00 | 0.05 | 0.05 | 76 | 1010.6 |
| 20260509193247 | 21 | 326 | 1.6 | 3.2 | 0.00 | 0.05 | 0.05 | 75 | 1010.7 |
| 20260509192743 | 21 | 142 | 1.6 | 3.2 | 0.00 | 0.05 | 0.05 | 79 | 1010.6 |
| 20260509192238 | 21 | 109 | 0.0 | 3.2 | 0.00 | 0.05 | 0.05 | 77 | 1010.5 |
| 20260509191734 | 21 | 334 | 0.0 | 1.6 | 0.00 | 0.05 | 0.05 | 76 | 1010.8 |
| 20260509191231 | 22 | 291 | 0.0 | 3.2 | 0.00 | 0.05 | 0.05 | 77 | 1010.8 |
| 20260509190727 | 21 | 110 | 0.0 | 1.6 | 0.00 | 0.05 | 0.05 | 79 | 1010.8 |
| 20260509190224 | 21 | 342 | 0.0 | 4.8 | 0.00 | 0.05 | 0.05 | 78 | 1010.9 |
| 20260509185721 | 21 | 11 | 0.0 | 1.6 | 0.00 | 0.05 | 0.05 | 78 | 1010.9 |
| 20260509185217 | 21 | 118 | 1.6 | 1.6 | 0.00 | 0.05 | 0.05 | 80 | 1010.9 |
| 20260509184715 | 20 | 58 | 1.6 | 1.6 | 0.00 | 0.05 | 0.05 | 80 | 1010.8 |
| 20260509184212 | 20 | 85 | 0.0 | 3.2 | 0.00 | 0.05 | 0.05 | 83 | 1010.7 |
| 20260509183708 | 20 | 31 | 3.2 | 3.2 | 0.00 | 0.05 | 0.05 | 80 | 1010.8 |
| 20260509183204 | 20 | 129 | 0.0 | 1.6 | 0.00 | 0.05 | 0.05 | 80 | 1010.9 |
| 20260509182659 | 21 | 114 | 1.6 | 3.2 | 0.00 | 0.05 | 0.05 | 78 | 1010.8 |
| 20260509182157 | 22 | 45 | 0.0 | 3.2 | 0.00 | 0.05 | 0.05 | 74 | 1011.0 |
| 20260509181655 | 21 | 7 | 1.6 | 3.2 | 0.00 | 0.05 | 0.05 | 74 | 1010.9 |
| 20260509181152 | 21 | 297 | 0.0 | 3.2 | 0.00 | 0.05 | 0.05 | 75 | 1011.0 |
| 20260509180649 | 21 | 135 | 0.0 | 3.2 | 0.00 | 0.05 | 0.05 | 76 | 1011.1 |
| 20260509180144 | 21 | 300 | 0.0 | 3.2 | 0.00 | 0.05 | 0.05 | 76 | 1011.1 |
| 20260509175641 | 20 | 129 | 1.6 | 1.6 | 0.00 | 0.05 | 0.05 | 79 | 1011.2 |
| 20260509175138 | 20 | 129 | 1.6 | 3.2 | 0.00 | 0.05 | 0.05 | 79 | 1011.2 |
| 20260509174633 | 21 | 59 | 0.0 | 4.8 | 0.00 | 0.05 | 0.05 | 77 | 1011.3 |
| 20260509174128 | 21 | 167 | 1.6 | 3.2 | 0.00 | 0.05 | 0.05 | 75 | 1011.5 |
| 20260509173625 | 22 | 95 | 4.8 | 4.8 | 0.00 | 0.05 | 0.05 | 75 | 1011.6 |
| 20260509173120 | 22 | 218 | 0.0 | 4.8 | 0.00 | 0.05 | 0.05 | 76 | 1011.7 |
| 20260509172617 | 22 | 334 | 0.0 | 3.2 | 0.00 | 0.05 | 0.05 | 76 | 1011.6 |
| 20260509172114 | 21 | 305 | 3.2 | 4.8 | 0.00 | 0.05 | 0.05 | 75 | 1011.4 |
| 20260509171609 | 22 | 222 | 1.6 | 4.8 | 0.00 | 0.05 | 0.05 | 75 | 1011.5 |
| 20260509171105 | 22 | 207 | 1.6 | 3.2 | 0.00 | 0.05 | 0.05 | 76 | 1011.7 |
| 20260509170602 | 21 | 341 | 0.0 | 6.4 | 0.00 | 0.05 | 0.05 | 77 | 1011.9 |
| 20260509170058 | 21 | 230 | 0.0 | 6.4 | 0.00 | 0.05 | 0.05 | 72 | 1012.0 |
| 20260509165557 | 21 | 156 | 0.0 | 4.8 | 0.00 | 0.05 | 0.05 | 78 | 1012.0 |
| 20260509165052 | 21 | 240 | 0.0 | 3.2 | 0.00 | 0.05 | 0.05 | 75 | 1012.1 |
| 20260509164548 | 21 | 297 | 1.6 | 3.2 | 0.00 | 0.05 | 0.05 | 74 | 1012.2 |
| 20260509164044 | 22 | 285 | 3.2 | 3.2 | 0.00 | 0.05 | 0.05 | 73 | 1012.2 |
| 20260509163543 | 21 | 51 | 3.2 | 4.8 | 0.00 | 0.05 | 0.05 | 72 | 1012.1 |
| 20260509163038 | 21 | 47 | 1.6 | 4.8 | 0.00 | 0.05 | 0.05 | 77 | 1012.2 |